Flag for U.S.A. Weather past 2 weeks in Tempe, Arizona, U.S.A.

Now
107 °F

Thunderstorms. Partly cloudy.


Feels Like: 105 °F
Forecast: 86 / 105 °F
Wind: 6 mph from North

Location: Phoenix Sky Harbor International Airport

Current Time: Aug 29, 2015 at 7:21:57 PM

Latest Report: Aug 29, 2015 at 7:02 PM


Visibility: 10 mi

Pressure: 29.74 "Hg

Humidity: 17%

Dew point: 53 °F

Location of TempeLocation

Historic Weather in Tempe — Graph

°F

Tempe temperature yesterday

Maximum temperature yesterday: 108 °F (at 3:51 PM)
Minimum temperature yesterday: 82 °F (at 4:51 AM)
Average temperature yesterday: 95 °F

Past Weeks' High & Low Weather Summary

 TemperatureHumidityPressure
High114 °F (Aug 15, 3:51 PM)70% (Aug 27, 4:51 PM)29.94 "Hg (Aug 27, 4:51 PM)
Low82 °F (Aug 27, 4:51 PM)11% (Aug 15, 4:51 PM)29.62 "Hg (Aug 18, 5:51 PM)
Average97 °F31%29.77 "Hg
* Reported Aug 14 5:51 PM — Aug 29 5:51 PM, Tempe, Weather by CustomWeather, © 2015

Note: Actual official high and low records may vary slightly from our data, if they occured in-between our weather recording intervals... More about our weather records

Advertising

Tempe weather history for previous 24 hours

 ConditionsComfort  
Time TempWeatherWind HumidityBarometerVisibility
5:51 PM
Sat, Aug 29
108 °FBroken clouds.5 mph17%29.66 "Hg10 mi
4:51 PM111 °FScattered clouds.9 mph15%29.66 "Hg10 mi
3:51 PM110 °FScattered clouds.8 mph16%29.67 "Hg10 mi
2:51 PM109 °FScattered clouds.5 mph16%29.70 "Hg10 mi
1:51 PM109 °FScattered clouds.No wind18%29.73 "Hg10 mi
12:51 PM105 °FScattered clouds.N/A20%29.76 "Hg10 mi
11:51 AM104 °FScattered clouds.7 mph22%29.79 "Hg10 mi
10:51 AM101 °FPassing clouds.7 mph25%29.81 "Hg10 mi
9:51 AM98 °FPassing clouds.9 mph28%29.82 "Hg10 mi
8:51 AM94 °FPassing clouds.9 mph31%29.81 "Hg10 mi
7:51 AM90 °FPassing clouds.8 mph34%29.80 "Hg10 mi
6:51 AM88 °FPassing clouds.7 mph35%29.78 "Hg10 mi
5:51 AM87 °FPassing clouds.6 mph37%29.76 "Hg10 mi
4:51 AM88 °FPassing clouds.7 mph42%29.75 "Hg10 mi
3:51 AM89 °FPassing clouds.6 mph41%29.73 "Hg10 mi
2:51 AM91 °FPassing clouds.3 mph38%29.72 "Hg10 mi
1:51 AM92 °FPassing clouds.6 mph44%29.71 "Hg10 mi
11:51 PM
Fri, Aug 28
96 °FPassing clouds.No wind31%29.72 "Hg10 mi
10:51 PM96 °FPassing clouds.No wind32%29.72 "Hg10 mi
9:51 PM99 °FPassing clouds.No wind24%29.72 "Hg10 mi
8:51 PM99 °FPassing clouds.3 mph24%29.71 "Hg10 mi
7:51 PM103 °FPartly cloudy.6 mph18%29.69 "Hg10 mi
Weather by CustomWeather, © 2015

See weather overviewHow to use our weather pages